Aeroporto :
LOGIN :

Iscrizione | Disclaimer

   EN    FR    IT 

 










Sommario :    VFR   VFR Marginale   IFR   IFR Intensivo   IFR Molto Intensivo
Visibilità : 
Base nubi : 
>= 8 km
>= 3000ft
5 / 8 km
1000 / 3000 ft
1500m / 5 km
500 / 1000 ft
800 / 1500m
200 / 500 ft
< 800m
< 200 ft
Simboli :   Temporali  Nebbia  Neve Forte  Precipitazioni Forti  Vento > 20 kt
SIGMETs :   Varie  Temporali  Ghiacco  Turbolenza  Onda orograficha  Ceneri Vulcaniche






- Altitudine del aeroporto : 7 ft
- Codice IATA : ESH


EGKA - Shoreham

ULTIMO METAR :
  • 010820Z 30008KT 9999 SCT015 12/10 Q0998

METARs OBSOLETI :
  • 010750Z 29008KT 9999 BKN013 12/10 Q0998
  • 010720Z 30008KT 9999 BKN013 11/10 Q0998
  • 010650Z 30005KT 9999 BKN009 11/10 Q0999

TAF TAF EGKA
Valido dal 01 a 07 ore il 01 a 15 ore UTC


010730Z 0107/0115 31008KT 9999 BKN014
BECMG 0107/0109 SCT018
BECMG 0110/0113 23013KT
PROB30
TEMPO 0110/0115 7000 SHRA
ATIS : +44 1273 467 372



MetMap, La meteo Aeronautica in un colpo d'occhio ! - Copyright ORBIFLY Dicembre 2007 - Disclaimer

ORBIFLY MET'MAP TEAM :

Programmazione e sviluppo : Alexandra Zaïnal
Concezione : Baudouin d'Aumeries
Aiuto per la programmazione : Marc-Olivier Méhu
Supporto tecnico e logistico : Manuel Goepfert
Aiuto per la traduzione : Arnaldo La Scala

Contatto : metmap@orbifly.com




FONTI E CREDITI :

   NOAA